Wind_Speed
2 1 1 3 6 8 10 10 8 8 7 6 6 6 7 8 8 8 6 5 4 5 7 9 11 11 12 12 12 11 9 8 8 8 9 9 7 7 7 6 4 3 6 8 9 12 13 13 13
2 0 1 2 6 10 11 11 9 8 7 6 6 7 7 8 8 7 6 5 3 3 6 8 10 11 11 12 13 12 10 9 8 8 8 8 7 7 7 7 5 3 3 5 6 6 6 8 9
2 2 3 3 6 10 11 11 9 7 7 7 7 8 8 8 8 7 6 4 3 3 4 7 9 10 11 13 14 14 12 10 9 9 8 7 7 7 8 8 7 6 5 4 4 6 6 7 8
1 2 4 5 7 10 11 11 9 7 7 8 8 9 9 9 8 6 5 4 3 4 5 6 8 10 11 13 14 15 14 12 10 9 8 8 8 8 8 8 8 8 9 8 7 7 8 9 9
0 2 4 6 8 10 12 11 11 12 11 10 9 9 10 9 8 6 5 4 3 4 6 7 8 10 11 13 15 16 16 14 12 11 10 9 8 8 7 7 8 9 10 11 10 10 11 10 9
2 3 5 7 9 11 12 12 12 12 12 12 11 10 10 9 8 7 6 5 4 4 7 9 10 11 12 13 14 16 17 16 14 12 10 10 9 8 8 9 9 9 11 12 13 14 13 12 11
5 4 5 7 9 11 12 13 14 13 12 12 12 11 10 9 8 7 7 6 4 4 7 10 11 13 14 14 14 15 16 16 14 13 11 9 8 8 9 10 10 10 11 12 14 15 15 14 13
8 7 7 8 10 12 13 14 15 15 14 14 13 12 10 9 8 7 6 6 4 5 8 11 13 14 15 14 14 15 15 15 14 13 12 10 8 8 8 10 11 11 11 12 14 15 16 15 14
12 10 9 10 12 14 15 15 16 17 17 15 14 12 10 8 7 5 5 5 5 7 10 13 15 16 16 15 14 14 14 14 14 13 12 10 9 8 8 8 10 11 11 12 13 14 16 16 15
15 13 12 13 14 16 16 16 16 18 18 16 13 11 9 6 3 2 3 5 7 10 12 14 16 17 17 16 15 14 14 14 14 13 11 11 10 9 7 7 8 9 11 11 12 12 13 15 16
17 16 15 16 16 18 18 16 17 17 18 16 12 9 7 5 4 4 6 8 10 11 13 15 16 17 18 18 16 15 15 15 14 12 11 10 10 9 7 6 7 9 10 11 10 10 11 12 13
19 19 18 18 18 18 18 18 18 18 18 15 12 9 7 7 7 8 9 11 12 13 15 16 18 18 18 18 17 16 16 16 14 12 10 9 9 9 8 7 7 9 10 10 10 9 9 10 11
22 21 20 21 21 20 20 19 19 19 18 15 12 10 9 10 11 11 12 13 14 15 17 18 19 19 18 18 18 17 17 16 13 11 10 8 9 10 9 9 9 10 10 10 10 9 8 8 8
24 24 23 24 24 23 22 20 20 20 18 17 14 12 12 14 14 14 13 13 14 16 18 20 21 21 20 20 19 18 17 15 13 10 9 9 9 10 10 10 10 10 10 10 10 9 7 6 6
27 26 26 27 27 26 25 23 22 20 19 18 16 14 15 16 17 15 14 14 15 17 18 19 21 22 22 21 20 18 17 14 12 10 8 8 9 10 11 11 10 10 10 11 10 9 7 5 4
30 30 30 30 29 28 26 23 23 21 20 19 17 16 17 18 18 17 16 16 16 17 18 19 21 22 22 21 19 17 15 12 11 10 8 8 9 11 12 11 11 10 11 11 11 10 8 6 4
34 34 33 33 32 30 27 23 22 23 21 20 19 18 19 19 19 19 18 17 16 17 18 19 21 22 21 19 18 16 15 13 12 10 8 9 10 12 13 13 12 12 12 12 12 11 9 6 5
35 36 36 35 33 30 28 24 21 22 21 21 20 19 20 21 20 20 20 18 18 18 18 19 21 21 20 18 17 15 15 12 11 9 9 10 11 13 14 14 14 15 14 14 14 13 11 8 6
36 36 35 34 33 31 28 25 21 21 21 21 20 20 22 23 22 21 21 20 19 19 18 19 20 20 20 19 18 16 15 13 12 11 10 11 12 14 15 16 17 17 17 16 16 16 14 11 9
34 33 33 33 31 30 27 24 22 22 22 22 21 22 23 24 22 21 21 21 20 20 19 20 20 20 20 20 19 18 18 16 14 13 13 13 14 16 18 19 20 20 19 18 18 19 17 14 12
34 32 30 29 29 28 26 23 21 23 23 23 23 23 24 24 23 23 23 21 21 21 21 21 21 21 21 20 19 19 20 19 17 17 17 16 16 18 20 21 23 23 23 21 21 21 20 17 14
32 31 30 29 28 27 26 24 19 23 24 23 22 24 25 25 25 25 24 22 22 22 22 22 22 22 22 21 20 21 21 21 21 20 19 18 19 20 21 23 25 26 26 25 23 23 23 21 18
32 31 30 29 30 28 26 26 21 23 25 24 23 24 25 26 27 27 26 24 23 23 23 22 22 22 23 23 23 22 22 22 22 22 21 21 20 21 22 25 26 28 29 28 26 25 25 24 23
29 30 31 31 30 27 24 26 25 24 25 24 24 25 26 27 27 28 27 25 24 24 23 22 22 22 23 24 24 24 24 23 22 23 23 23 22 21 22 26 28 30 31 31 29 28 27 27 26
25 26 27 27 26 25 25 25 26 26 25 26 27 26 27 27 27 27 27 26 25 24 23 23 23 23 23 23 24 23 22 21 21 21 22 23 23 23 23 25 29 31 32 33 31 31 30 29 28
23 24 25 25 24 23 23 24 25 25 25 26 27 27 27 26 26 26 25 25 25 26 25 24 23 23 22 21 20 20 19 19 19 19 20 21 22 23 23 24 26 30 33 33 32 32 32 32 31
26 26 25 26 26 25 25 25 26 26 26 27 28 28 27 26 25 25 24 25 26 26 26 24 23 22 19 18 17 17 17 17 17 18 19 20 21 22 23 23 24 27 30 32 33 33 34 34 33
28 28 28 29 30 30 29 28 28 27 27 28 29 29 28 27 25 24 24 24 26 26 25 24 22 21 19 17 15 15 15 16 17 18 18 19 20 20 21 21 22 25 27 30 32 32 33 34 34
29 29 29 31 32 33 32 29 28 26 25 26 27 27 26 25 23 23 23 24 25 26 25 23 21 20 18 16 15 14 14 15 16 17 18 18 19 20 20 21 22 24 27 28 30 30 32 32 32
29 29 29 31 32 32 31 29 25 24 23 24 26 27 25 24 23 23 24 25 26 26 25 23 22 21 19 18 16 16 15 16 17 18 19 20 20 20 21 21 21 23 26 28 29 29 30 32 32
Wind_Direction
188 213 294 10 17 8 8 6 354 338 323 300 289 289 291 291 296 299 295 309 353 30 46 39 27 17 7 2 357 352 348 342 340 341 338 333 324 312 309 313 317 251 213 204 203 209 207 208 211
137 41 354 8 11 10 11 11 1 350 339 314 299 299 300 301 301 300 292 296 326 22 42 35 24 13 2 356 351 345 338 330 328 330 332 326 316 304 297 295 290 260 200 193 198 198 197 204 208
114 19 11 8 6 7 6 8 7 356 345 328 312 307 309 311 311 306 298 297 315 357 21 25 16 6 357 352 347 342 335 325 320 319 322 317 311 302 290 282 273 256 234 213 203 205 205 206 210
119 17 8 5 4 4 0 0 4 4 350 333 321 313 308 314 318 314 306 305 330 359 2 2 2 356 349 344 342 340 336 328 318 313 309 303 302 301 292 279 268 253 241 233 226 224 223 220 219
195 13 22 33 26 8 2 1 2 2 352 339 326 317 307 310 315 314 308 306 330 1 5 359 354 351 346 340 336 335 334 330 321 313 302 294 290 290 290 281 268 252 239 233 231 233 234 230 226
288 12 33 29 17 5 1 1 1 355 344 335 326 316 305 304 301 298 295 293 306 347 5 3 357 353 351 345 338 334 333 329 322 314 303 289 281 279 278 275 266 253 240 230 229 234 238 238 232
285 326 2 5 359 352 353 358 360 353 344 336 327 318 306 296 285 280 279 279 286 331 355 358 351 349 350 347 341 335 332 329 322 312 300 285 272 274 274 270 261 251 240 231 229 233 237 238 232
276 296 323 333 334 333 339 349 354 356 351 340 332 323 311 294 281 272 272 273 285 332 351 351 347 343 341 340 338 335 332 327 321 313 299 280 266 268 273 269 257 244 236 232 231 233 236 236 233
270 281 297 306 312 318 325 336 344 351 351 344 336 330 319 302 283 271 268 277 303 332 346 347 345 342 336 333 333 331 329 325 319 313 301 280 264 264 269 264 253 240 233 233 235 237 238 238 234
267 276 284 292 300 307 312 323 333 342 348 342 336 332 326 315 291 264 273 292 311 328 339 343 341 339 334 329 326 326 323 319 315 310 300 281 263 258 258 254 244 234 229 232 235 239 241 240 238
265 273 280 287 294 303 305 313 322 332 339 337 333 327 315 301 283 272 281 295 310 324 331 336 338 338 335 330 326 325 322 318 313 307 297 280 260 247 240 235 230 225 224 227 231 237 240 240 237
266 271 277 283 289 298 302 305 312 318 327 331 326 317 301 280 273 278 289 300 310 319 326 331 338 338 334 330 329 328 325 319 313 307 295 276 254 236 224 217 215 218 224 229 233 235 240 240 239
265 270 274 279 283 288 294 297 304 306 316 321 315 303 289 277 274 278 288 300 309 316 325 332 337 336 330 325 326 326 325 322 315 306 292 272 249 231 218 211 212 218 226 231 231 232 237 240 238
265 270 273 276 279 284 289 291 294 296 302 309 305 294 281 275 274 277 287 298 307 318 325 331 334 333 327 319 316 320 323 321 315 306 289 267 244 229 216 212 213 217 225 230 231 229 227 229 231
264 268 270 271 275 282 285 285 286 287 290 298 300 293 282 277 279 280 285 292 302 314 321 326 327 326 324 317 310 311 317 318 314 309 288 263 241 225 215 212 214 217 224 230 231 226 213 215 225
261 262 264 268 273 277 281 282 281 282 285 290 293 290 285 284 286 285 285 288 297 308 315 320 321 319 316 312 308 303 309 311 309 306 286 260 240 225 216 214 216 218 224 231 234 229 217 214 227
256 258 261 266 270 274 277 278 277 280 282 285 287 285 284 286 287 286 287 288 295 304 310 315 316 314 311 308 306 300 301 300 298 295 277 256 242 230 221 218 219 221 224 229 234 230 223 219 215
256 257 258 262 266 272 275 275 274 275 276 280 282 282 282 283 284 284 286 287 293 302 307 310 312 308 305 303 302 300 296 292 292 286 275 259 244 238 230 225 223 223 224 225 228 227 225 222 218
259 260 259 261 263 268 272 272 272 272 273 277 281 279 280 282 282 282 284 286 291 298 303 306 307 303 297 296 294 293 292 289 287 286 279 268 253 245 239 234 230 228 225 224 226 227 225 223 220
265 266 265 265 264 266 269 269 269 269 272 277 279 277 278 280 281 282 283 286 292 297 300 303 303 298 292 290 288 287 286 288 283 286 283 275 262 254 246 241 238 234 230 226 225 226 224 221 219
267 266 266 265 265 266 266 264 265 267 271 276 276 274 275 278 280 282 284 287 291 295 297 299 298 295 289 285 282 282 282 283 280 278 274 272 263 257 248 242 240 236 232 227 223 224 226 224 221
261 262 264 263 266 265 266 265 259 266 271 275 272 269 271 275 279 282 284 286 290 292 294 295 295 291 286 282 280 279 276 277 275 271 270 269 263 259 254 246 240 238 233 227 225 225 227 227 223
259 259 259 260 265 266 264 264 260 265 270 271 268 266 268 273 277 279 281 284 289 291 292 293 292 289 284 280 279 277 274 272 269 266 266 266 264 261 256 246 241 238 234 228 226 224 227 228 226
254 255 255 258 261 262 261 264 266 264 266 267 265 264 266 270 275 277 281 286 290 293 292 291 289 286 283 280 278 276 272 268 264 263 263 264 263 262 258 249 242 240 235 228 225 225 228 229 228
253 253 254 256 258 260 261 263 266 265 263 265 266 266 268 271 276 279 283 289 293 297 296 292 288 286 283 279 276 273 269 265 262 261 262 263 262 261 259 253 244 241 233 228 225 227 227 228 228
252 255 258 261 261 260 259 261 264 265 265 266 268 269 271 275 279 283 288 294 299 302 302 296 290 287 283 279 275 271 268 266 264 263 263 263 264 262 259 253 249 243 234 228 226 227 229 228 228
245 249 255 260 261 260 259 260 263 266 267 267 269 271 274 279 284 287 292 299 303 304 303 297 290 285 283 280 277 274 271 270 268 268 267 266 265 265 261 255 252 243 235 230 228 230 231 229 229
246 250 253 255 258 259 258 259 265 267 269 268 270 273 277 281 283 288 293 298 301 302 301 296 287 283 282 283 284 282 279 276 273 271 270 269 268 267 263 260 254 244 237 232 229 231 230 230 232
250 252 255 258 259 261 263 264 267 272 273 273 275 277 281 282 282 287 292 296 298 298 297 292 285 280 279 281 284 287 286 283 280 278 275 273 271 270 266 261 259 250 241 237 233 232 231 232 233
250 254 256 257 258 261 264 265 270 274 274 274 276 279 281 281 281 286 292 295 296 297 295 290 283 277 275 276 279 284 287 287 285 283 280 277 273 269 266 261 259 252 244 240 238 237 238 237 237
Height
5888 5889 5890 5892 5893 5892 5891 5890 5889 5887 5887 5886 5887 5887 5887 5887 5887 5889 5886 5884 5884 5883 5883 5882 5881 5880 5878 5876 5874 5873 5871 5870 5870 5869 5868 5867 5866 5865 5864 5864 5863 5863 5863 5864 5866 5868 5871 5874 5876
5889 5889 5891 5892 5892 5891 5891 5890 5889 5887 5886 5886 5885 5886 5885 5885 5884 5884 5883 5883 5883 5883 5882 5881 5880 5879 5877 5876 5874 5872 5870 5869 5869 5868 5867 5866 5865 5864 5864 5864 5863 5863 5864 5865 5867 5868 5870 5873 5875
5889 5890 5892 5892 5891 5892 5891 5890 5889 5887 5886 5885 5884 5884 5884 5884 5883 5883 5882 5882 5883 5882 5881 5880 5879 5878 5876 5875 5873 5871 5869 5868 5867 5867 5866 5865 5864 5864 5863 5863 5863 5864 5865 5866 5867 5868 5870 5872 5874
5889 5891 5892 5892 5891 5891 5891 5890 5888 5887 5886 5884 5884 5883 5882 5882 5882 5882 5881 5882 5882 5881 5881 5880 5878 5877 5875 5874 5872 5870 5868 5867 5866 5865 5865 5864 5863 5863 5862 5862 5862 5863 5864 5866 5867 5867 5869 5871 5873
5889 5891 5892 5891 5891 5891 5890 5889 5887 5886 5884 5883 5882 5881 5881 5881 5880 5880 5880 5881 5881 5881 5880 5878 5877 5876 5874 5872 5871 5869 5867 5866 5864 5863 5863 5863 5862 5861 5861 5861 5861 5862 5863 5865 5866 5866 5867 5870 5872
5890 5891 5892 5891 5890 5890 5890 5889 5887 5886 5884 5882 5881 5880 5879 5879 5879 5879 5879 5879 5880 5880 5879 5877 5875 5874 5872 5871 5869 5867 5865 5864 5863 5862 5861 5860 5860 5860 5860 5859 5859 5860 5861 5863 5864 5865 5866 5869 5871
5890 5890 5891 5890 5890 5890 5890 5889 5888 5886 5884 5881 5880 5878 5877 5877 5877 5877 5877 5878 5878 5878 5877 5875 5873 5872 5870 5869 5867 5865 5864 5862 5861 5859 5859 5858 5858 5858 5858 5858 5858 5858 5860 5861 5862 5863 5865 5867 5869
5888 5890 5890 5890 5889 5889 5889 5888 5887 5886 5883 5881 5879 5877 5876 5876 5875 5876 5876 5877 5877 5876 5875 5873 5871 5869 5868 5867 5865 5863 5862 5860 5859 5857 5856 5856 5856 5856 5856 5856 5856 5856 5858 5859 5860 5861 5863 5865 5867
5886 5889 5889 5889 5888 5888 5887 5887 5886 5885 5883 5881 5878 5877 5875 5874 5874 5874 5875 5875 5875 5874 5873 5871 5869 5867 5866 5864 5863 5861 5859 5858 5856 5855 5854 5853 5853 5853 5853 5853 5853 5855 5856 5857 5858 5859 5861 5863 5865
5885 5886 5887 5887 5887 5886 5885 5885 5885 5884 5883 5880 5878 5876 5874 5873 5873 5873 5873 5873 5873 5872 5871 5869 5867 5865 5863 5862 5860 5859 5857 5855 5854 5852 5851 5851 5851 5851 5851 5851 5851 5853 5854 5855 5856 5857 5859 5861 5863
5882 5883 5884 5884 5884 5884 5883 5883 5883 5883 5882 5879 5877 5875 5874 5873 5872 5872 5872 5871 5870 5869 5868 5866 5864 5862 5860 5859 5857 5856 5854 5853 5851 5850 5849 5848 5848 5848 5849 5849 5850 5851 5853 5854 5855 5856 5857 5859 5860
5879 5880 5881 5881 5881 5881 5881 5881 5881 5881 5880 5878 5876 5874 5873 5872 5871 5871 5870 5869 5868 5866 5865 5863 5861 5859 5857 5856 5854 5853 5852 5850 5849 5848 5847 5846 5846 5846 5847 5847 5848 5850 5851 5852 5854 5855 5856 5857 5858
5876 5877 5877 5878 5878 5878 5879 5879 5879 5878 5878 5877 5875 5873 5872 5871 5870 5869 5868 5867 5865 5864 5861 5859 5858 5856 5854 5853 5852 5850 5849 5847 5846 5845 5844 5844 5844 5844 5845 5846 5846 5848 5849 5851 5852 5853 5854 5855 5856
5872 5873 5874 5874 5874 5875 5876 5876 5876 5876 5875 5874 5873 5872 5870 5869 5868 5868 5867 5865 5863 5861 5858 5856 5854 5853 5851 5850 5849 5847 5846 5844 5843 5843 5842 5841 5841 5842 5843 5844 5845 5846 5847 5849 5851 5852 5852 5853 5854
5867 5869 5869 5869 5870 5871 5873 5873 5873 5872 5872 5871 5870 5869 5868 5867 5866 5866 5864 5862 5860 5858 5855 5853 5851 5849 5848 5847 5846 5844 5843 5841 5841 5840 5840 5839 5839 5840 5841 5843 5843 5844 5846 5847 5849 5850 5851 5852 5852
5863 5863 5864 5865 5865 5866 5869 5869 5868 5868 5868 5867 5867 5866 5865 5864 5863 5862 5861 5859 5856 5854 5852 5849 5848 5846 5845 5844 5843 5841 5840 5839 5838 5837 5837 5837 5837 5838 5839 5840 5841 5842 5844 5845 5847 5848 5849 5850 5851
5856 5857 5858 5860 5860 5861 5863 5864 5864 5863 5863 5863 5863 5862 5861 5860 5859 5858 5856 5855 5853 5851 5848 5846 5844 5843 5841 5840 5839 5838 5837 5836 5835 5834 5834 5834 5834 5835 5836 5838 5839 5840 5842 5843 5845 5847 5848 5848 5849
5850 5851 5852 5854 5854 5856 5857 5859 5859 5859 5858 5858 5858 5857 5856 5855 5854 5853 5852 5851 5849 5847 5845 5843 5841 5839 5838 5836 5835 5834 5833 5833 5832 5831 5831 5831 5831 5832 5833 5835 5836 5837 5839 5841 5843 5845 5846 5847 5848
5844 5845 5847 5848 5848 5850 5851 5853 5854 5854 5853 5853 5853 5852 5851 5850 5849 5848 5848 5846 5845 5843 5841 5839 5837 5835 5834 5833 5832 5831 5830 5829 5829 5828 5828 5828 5828 5829 5830 5831 5833 5834 5836 5838 5840 5842 5844 5845 5847
5839 5839 5840 5841 5842 5844 5845 5847 5848 5848 5848 5848 5847 5846 5845 5844 5844 5843 5843 5841 5839 5837 5836 5834 5832 5831 5830 5829 5828 5827 5826 5826 5825 5825 5825 5824 5824 5825 5826 5827 5829 5831 5833 5835 5837 5840 5842 5844 5845
5833 5834 5835 5836 5837 5838 5840 5842 5844 5843 5843 5843 5842 5841 5839 5839 5838 5838 5837 5835 5834 5832 5830 5829 5827 5826 5825 5824 5824 5823 5822 5821 5821 5821 5820 5820 5821 5821 5821 5822 5824 5826 5829 5831 5833 5836 5839 5842 5844
5828 5828 5829 5830 5831 5833 5835 5836 5839 5838 5838 5837 5836 5835 5834 5833 5833 5832 5831 5830 5828 5826 5825 5823 5821 5820 5819 5819 5819 5818 5817 5817 5816 5816 5816 5816 5816 5816 5816 5817 5819 5821 5823 5826 5829 5832 5835 5838 5841
5821 5822 5823 5824 5826 5828 5829 5830 5835 5833 5833 5832 5831 5830 5829 5828 5828 5826 5825 5824 5822 5820 5819 5817 5815 5814 5813 5812 5812 5812 5811 5811 5811 5810 5810 5810 5810 5810 5811 5812 5813 5815 5818 5821 5824 5828 5831 5834 5837
5815 5816 5817 5818 5820 5823 5824 5825 5828 5827 5827 5826 5825 5825 5824 5823 5823 5821 5819 5818 5816 5814 5813 5811 5809 5808 5806 5806 5805 5805 5805 5804 5804 5805 5805 5804 5804 5804 5805 5805 5807 5809 5812 5815 5818 5822 5825 5829 5832
5809 5810 5811 5812 5814 5817 5818 5820 5822 5821 5821 5820 5820 5819 5818 5818 5817 5815 5814 5812 5810 5809 5807 5805 5803 5801 5800 5799 5798 5798 5798 5798 5798 5798 5798 5798 5798 5799 5799 5799 5801 5802 5805 5808 5812 5816 5819 5823 5826
5803 5805 5807 5808 5809 5811 5812 5813 5815 5815 5815 5815 5814 5814 5813 5813 5812 5810 5808 5807 5805 5803 5801 5799 5797 5795 5794 5792 5792 5791 5791 5791 5791 5792 5792 5792 5792 5792 5793 5793 5795 5796 5798 5801 5805 5809 5812 5816 5820
5798 5799 5801 5803 5803 5804 5806 5808 5809 5809 5809 5809 5809 5808 5808 5807 5806 5804 5803 5802 5800 5797 5795 5793 5791 5790 5788 5787 5786 5786 5786 5786 5785 5786 5786 5786 5786 5786 5787 5788 5788 5790 5792 5795 5798 5802 5806 5809 5813
5793 5794 5795 5796 5797 5798 5800 5801 5803 5803 5803 5803 5803 5802 5802 5801 5800 5799 5798 5796 5794 5792 5790 5788 5786 5785 5784 5783 5782 5781 5781 5780 5780 5780 5780 5781 5781 5781 5781 5782 5783 5784 5786 5789 5792 5795 5799 5802 5806
5788 5789 5790 5790 5791 5791 5793 5797 5796 5797 5797 5797 5796 5796 5796 5795 5794 5793 5792 5790 5789 5787 5785 5783 5782 5780 5779 5778 5777 5776 5776 5775 5775 5775 5775 5775 5775 5775 5776 5777 5778 5779 5781 5783 5786 5789 5793 5796 5799
5781 5783 5784 5784 5784 5784 5786 5792 5790 5791 5791 5791 5790 5790 5789 5789 5788 5787 5786 5784 5782 5781 5779 5778 5777 5776 5775 5774 5773 5772 5771 5770 5770 5770 5769 5770 5770 5770 5770 5771 5772 5773 5775 5777 5780 5783 5786 5789 5792